BRICSAT2 (NO-103)

Last updated on Fri Apr 22 2022 00:02:52 GMT+0000 (Coordinated Universal Time)

1 44355U 19036S 22110.24609159 .09797144 -77191-5 93620-3 0 9997 2 44355 28.5075 82.7172 0016307 255.7935 104.0877 16.36779689157079

Satellite not in orbit

BRICSAT2 (NO-103)